Weather History for White Plains, NY

Change the Weather History Date:

Tuesday, July 10, 2012

  Actual Average Record
Temperature  
Mean Temperature 74 °F -  
Max Temperature 84 °F 79 °F 97 °F (1993)
Min Temperature 66 °F 61 °F 35 °F (1998)
Cooling Degree Days 9    
Growing Degree Days 24 (Base 50)    
Moisture  
Dew Point 55 °F    
Average Humidity 53    
Maximum Humidity 81    
Minimum Humidity 33    
Precipitation  
Precipitation 0.00 in - - ()
Sea Level Pressure  
Sea Level Pressure 30.02 in    
Wind  
Wind Speed 4 mph (ESE)    
Max Wind Speed 10 mph    
Max Gust Speed -    
Visibility 10 miles    
Events Rain    
Averages and records for this station are not official NWS values.
T = Trace of Precipitation, MM = Missing Value Source: NWS Daily Summary

Daily Weather History Graph

Daily Weather History Graph

Search for Another Location

Airport:

Trip Planner

Search our weather history database for the weather conditions in past years. The results will help you decide how hot, cold, wet, or windy it might be!

Date:

Astronomy

Jul. 10, 2012 Rise Set
Actual Time 5:32 AM EDT 8:28 PM EDT
Civil Twilight 4:59 AM EDT 9:01 PM EDT
Nautical Twilight 4:17 AM EDT 9:42 PM EDT
Astronomical Twilight 3:28 AM EDT 10:31 PM EDT
Moon No Moon Rise 12:59 PM EDT (7/10)
Length of Visible Light 16h 02m
Length of Day
14h 56m
Waning Gibbous, 54% of the Moon is Illuminated
Jul 10
Waning Gibbous
Jul 10
Last Quarter
Jul 19
New
Jul 26
First Quarter
Aug 1
Full

Hourly Weather History & Observations

Time (EDT) Temp. Heat Index Dew Point Humidity Pressure Visibility Wind Dir Wind Speed Gust Speed Precip Events Conditions
12:56 AM 66.9 °F - 61.0 °F 81% 29.97 in 10.0 mi Calm Calm - N/A   Scattered Clouds
1:56 AM 66.9 °F - 61.0 °F 81% 29.97 in 10.0 mi NW 3.5 mph - N/A   Mostly Cloudy
2:56 AM 66.9 °F - 61.0 °F 81% 29.98 in 10.0 mi Calm Calm - N/A   Partly Cloudy
3:56 AM 68.0 °F - 57.0 °F 68% 29.98 in 10.0 mi North 5.8 mph - N/A   Clear
4:56 AM 66.9 °F - 51.1 °F 57% 29.98 in 10.0 mi North 6.9 mph - N/A   Clear
5:56 AM 66.9 °F - 48.9 °F 52% 30.00 in 10.0 mi North 9.2 mph - N/A   Clear
6:56 AM 69.1 °F - 50.0 °F 51% 30.01 in 10.0 mi NE 3.5 mph - N/A   Clear
7:56 AM 70.0 °F - 52.0 °F 53% 30.03 in 10.0 mi NE 6.9 mph - N/A   Clear
8:56 AM 73.0 °F - 50.0 °F 44% 30.04 in 10.0 mi ENE 6.9 mph - N/A   Clear
9:56 AM 75.0 °F - 50.0 °F 41% 30.05 in 10.0 mi East 5.8 mph - N/A   Clear
10:56 AM 77.0 °F - 51.1 °F 40% 30.06 in 10.0 mi Calm Calm - N/A   Clear
11:56 AM 80.1 °F - 50.0 °F 35% 30.05 in 10.0 mi SE 6.9 mph - N/A   Clear
12:56 PM 81.0 °F 80.4 °F 53.1 °F 38% 30.04 in 10.0 mi SSE 10.4 mph - N/A   Clear
1:56 PM 82.0 °F - 52.0 °F 35% 30.03 in 10.0 mi SE 8.1 mph - N/A   Scattered Clouds
2:56 PM 82.9 °F - 52.0 °F 34% 30.02 in 10.0 mi SSE 6.9 mph - N/A   Scattered Clouds
3:56 PM 82.9 °F - 51.1 °F 33% 30.01 in 10.0 mi SE 4.6 mph - N/A   Scattered Clouds
4:56 PM 82.9 °F - 51.1 °F 33% 30.01 in 10.0 mi SSE 10.4 mph - N/A   Partly Cloudy
5:56 PM 80.6 °F 81.8 °F 62.6 °F 54% 30.02 in 10.0 mi SSE 10.4 mph - N/A   Partly Cloudy
6:56 PM 79.0 °F - 61.0 °F 54% 30.01 in 10.0 mi South 8.1 mph - N/A   Partly Cloudy
7:56 PM 77.0 °F - 57.0 °F 50% 30.02 in 10.0 mi South 6.9 mph - N/A   Scattered Clouds
8:56 PM 73.9 °F - 60.1 °F 62% 30.04 in 10.0 mi SSW 3.5 mph - N/A   Partly Cloudy
9:56 PM 73.9 °F - 61.0 °F 64% 30.08 in 10.0 mi Calm Calm - N/A   Overcast
10:56 PM 73.0 °F - 63.0 °F 71% 30.07 in 10.0 mi Calm Calm - 0.00 in Rain Light Rain